Showing default

HOTSAT-2, 68465

Orbit data source: Space-Track

HOTSAT-2, 68465 is a payload satellite owned by Satellite Vu (UK) in SSO that was launched on Mon, 30 Mar 2026 UTC via an FALCON 9 launch vehicle from the Air Force Western Test Range (AFWTR). Payload-class satellites include a variety of spacecraft equipped with specific instruments for various scientific and technological missions. These include communications satellites like Starlink; space stations such as the ISS; scientific satellites like the Hubble; Earth observation satellites from companies like Planet Labs, Umbra, and HawkEye 360; GPS; miniature CubeSats for education and research; and military/defense satellites.

Loading next visibility...
Identifier
68465, 2026-067BB
Orbit
SSO
Country
Flag of UKUK
Related business
Manufacturer
SSTL
Mission
Operational Commercial Imaging
Bus & Motor
DARKCARB, H2O AOCS
Mass
130 kg wet, 130 kg dry
Launch date (UTC)
2026-03-30 (6 months ago)
Launch vehicle
FALCON 9
Launch site
Air Force Western Test Range (AFWTR)
Object type
Payload
Rocket body
Debris
Shape & HBR
Box + Cone + 1 Pan, 0.6 m
Radar Cross Section
0.625 m², Large (>1 m²)

Expand to show TLE details & history
Last TLE update: 15 hours ago

TLE from 15 hours ago
0 HOTSAT-2
1 68465U 26067BB  26263.44022436  .00002153  00000-0  10913-3 0  9992
2 68465  97.4636 220.3964 0005138  96.4362 263.7457 15.18016158 26388
Epoch: 2026-09-20T10:33Z
TLE epoch observation values (Epoch: 2026-09-20T10:33:55.384Z)
Latitude
-0.00005°
Longitude
62.58126°
Altitude
515.31 km
Speed
7.606 km/s
True Right ascension
14h 41m 35s
True Declination
0° 00' 00"
Sunlit
Object was in daylight at epoch
Visualization orbit readout
Latitude
Unknown
Longitude
Unknown
Altitude
Unknown
Speed
Unknown
Apparent Right ascension
Unknown
Apparent Declination
Unknown
Sunlit
N/A
Visualization observer readout
Local Sidereal Time
18:55:30
Azimuth
Unknown
Elevation
Unknown
Doppler factor
Unknown
Orbital elements
Apogee altitude
512.346 km
Perigee altitude
505.269 km
Semi-major axis
6,886.945 km
Eccentricity
0.00051
Inclination
97.4636°
RAAN
220.3964°
Arg. of periapsis
96.4362°
True anomaly
263.68718°
Mean anomaly
263.7457°
Eccentric anomaly
263.71644°
Mean motion
3.79755 °/min
Orbital period
94.8 mins
BSTAR
0.00010913
Loading maneuver chart data...
Computing Atmospheric mass density...
Loading historical data...
Loading historical data...
Loading historical data...
Loading historical data...
Loading historical data...
Loading historical data...
Loading historical data...

Documentation

Showing up to 5 results
|